Tracking 17844 objects as of 25-August-2016
HD Live streaming from Space Station
objects crossing your sky now

COSMOS 2430

Track COSMOS 2430 now!
COSMOS 2430 is classified as:


NORAD ID: 32268
Int'l Code: 2007-049A
Perigee: 390.9 km
Apogee: 39,930.4 km
Inclination: 64.3 °
Period: 716.8 minutes
Semi major axis: 26531 km
RCS: 3.1623 m2 (large)
Launch date: October 23, 2007
Source: Commonwealth of Independent States (former USSR) (CIS)
Launch site: PLESETSK MISSILE AND SPACE COMPLEX (PKMTR)
Your satellite tracking list
Your tracking list is empty





NASA's NSSDC Master Catalog

Two Line Element Set (TLE):
1 32268U 07049A   16236.40019055 +.00000018 +00000-0 +41991-4 0  9990
2 32268 064.3024 002.3193 7451378 242.4347 026.1176 02.00889239064746
Source of the keplerian elements: AFSPC

N2YO: 496